Location: Auckland
(36.8670°S, 174.7670°E)
Time: 12:38:19
(UTC+13:00)

ISS - Pass Details

Date: 30 January 2019
Orbit: 403 x 411 km, 51.6° (Epoch: 22 February)

Event Time Altitude Azimuth Distance (km) Brightness Sun altitude
Exits shadow 05:25:06 23° 294° (WNW) 935 -2.6 -12.8°
Maximum altitude 05:27:00 61° 219° (SW) 475 -3.6 -12.5°
Drops below altitude 10° 05:30:20 10° 137° (SE) 1,496 0.4 -12.0°
Sets 05:32:27 0° 133° (SE) 2,362 2.0 -11.6°
